Location: Unspecified
(52.0000°N, 4.4000°E)
Time: 07:01:36
(UTC+00:00)

Meteor 2-15 Rocket - Pass Details

Date: 14 May 2025
Orbit: 938 x 956 km, 82.5° (Epoch: 22 June)

Event Time Altitude Azimuth Distance (km) Brightness Sun altitude
Rises 23:12:05 0° 349° (N) 3,643 9.2 -18.9°
Reaches altitude 10° 23:14:37 10° 351° (N) 2,691 8.1 -18.9°
Maximum altitude 23:20:46 75° 77° (ENE) 986 4.5 -19.0°
Enters shadow 23:23:52 31° 158° (SSE) 1,600 5.1 -19.1°
